Theta_e
300 301 301 302 302 302 302 302 303 302 302 297 295 298 290 289 286 302 302 305 302 294 287 289 287 286 290 294 291 293 291 290 293 292 294 291 289 292 291 291 291 291 292 292 290 291 287 289 287 286 284 286 285 289 293 294 293 292 284 291 287 289 281 280 280 282 284 285 284 284 284 287 287 287 286 285 285 287 285 283 280 280 276 278 276 273 281
300 301 301 302 302 301 302 302 302 302 301 298 298 292 290 291 290 295 303 305 301 291 282 282 285 288 291 291 289 292 290 289 290 291 293 292 291 292 291 291 294 291 293 294 290 293 286 288 284 284 284 286 288 291 292 295 292 291 290 290 291 282 281 283 278 277 280 280 284 285 285 285 287 287 286 287 285 286 283 278 279 279 278 281 280 276 282
300 300 301 301 301 301 301 301 302 302 302 301 297 290 292 292 294 297 298 302 298 287 289 287 286 287 286 287 286 288 289 291 292 293 292 293 293 292 291 293 293 289 293 293 293 292 287 286 286 283 284 286 285 291 293 296 293 292 291 294 292 284 283 283 278 275 274 274 275 278 281 283 281 281 285 287 287 285 283 283 280 279 281 280 277 281 283
300 300 301 301 301 301 301 301 301 301 301 301 297 293 290 287 281 291 292 296 295 293 294 291 288 287 287 286 286 288 286 291 293 294 293 289 292 292 291 291 292 290 292 289 288 289 288 289 285 286 285 283 285 288 293 294 293 293 295 293 288 281 285 286 285 283 281 284 285 286 286 284 283 284 286 286 287 286 286 284 281 280 283 280 284 284 282
300 300 300 300 301 300 301 301 301 301 301 301 297 294 290 293 285 287 283 291 291 290 291 290 290 286 290 284 286 284 287 289 291 295 290 291 291 289 292 291 290 289 291 289 289 290 285 286 288 286 286 283 285 287 292 293 293 295 294 293 287 282 283 285 285 286 285 284 284 287 289 285 286 284 284 286 286 285 285 284 283 287 280 279 285 285 283
300 300 300 300 300 300 300 301 301 301 301 301 298 288 291 283 289 292 294 287 282 285 286 291 289 291 291 287 289 286 286 288 286 292 291 291 293 289 289 292 292 292 291 291 287 287 286 286 286 285 284 284 285 287 290 291 293 294 292 294 291 287 284 286 285 285 282 282 285 287 287 287 286 286 285 284 285 285 284 285 288 285 283 283 285 283 284
299 299 300 300 300 300 300 300 300 301 300 300 295 287 290 290 290 291 296 289 290 289 290 291 290 289 289 287 288 286 286 286 290 289 287 288 290 292 286 289 291 292 292 291 287 288 283 283 286 286 285 286 285 284 284 288 290 293 290 291 286 287 282 285 286 283 282 281 283 286 286 284 284 285 285 285 285 285 286 287 288 287 285 288 282 283 285
299 299 299 300 300 300 300 300 301 300 300 298 292 291 288 285 287 288 291 291 291 291 291 290 290 287 290 286 287 288 288 287 289 290 289 285 288 294 289 290 292 292 292 292 289 289 290 289 285 288 287 284 287 285 286 284 287 289 286 289 285 287 278 287 282 280 278 280 282 283 285 284 283 284 285 285 285 286 287 288 288 287 287 287 286 284 284
299 299 299 300 300 300 299 300 300 300 299 292 291 291 293 292 296 296 289 288 290 290 290 289 288 287 288 287 288 289 289 288 291 290 292 290 289 291 290 292 291 292 292 292 292 294 292 290 289 290 290 285 288 286 282 286 287 288 286 286 284 280 277 282 282 278 274 279 280 280 283 283 283 283 284 284 284 282 285 285 288 286 286 287 285 284 286
299 299 299 299 299 299 300 300 300 299 299 292 292 291 295 290 292 298 295 288 292 288 290 290 289 285 289 289 289 289 289 291 292 288 291 291 291 293 293 293 292 290 291 290 292 292 289 290 292 293 291 291 289 289 290 291 289 284 284 282 283 279 277 276 277 278 271 278 279 280 281 282 279 281 285 286 286 287 288 288 289 289 290 285 284 286 290
300 299 298 299 299 299 299 299 300 299 297 290 288 291 292 291 293 295 295 288 289 289 289 288 287 288 291 292 289 291 291 291 292 288 287 292 291 293 295 293 291 290 290 292 293 293 291 292 292 292 292 290 289 290 292 293 293 292 289 285 282 284 284 279 283 279 274 276 279 280 281 274 278 290 289 289 287 287 285 286 288 289 290 290 291 292 285
299 298 298 299 299 299 299 299 300 299 298 295 294 291 293 289 294 297 291 286 287 290 289 287 288 289 290 291 291 290 290 291 291 294 290 291 291 293 295 294 293 288 289 293 294 294 295 295 294 293 291 291 290 291 292 291 291 290 292 290 285 286 285 283 282 280 277 276 281 281 276 278 288 286 290 291 291 290 289 289 289 290 291 291 291 292 291
298 298 298 298 299 299 299 299 300 299 299 297 294 290 293 292 291 295 293 290 286 288 287 288 291 291 292 291 290 291 292 293 294 294 294 292 289 290 294 294 292 290 294 295 297 296 290 286 287 287 287 288 288 289 289 289 289 288 288 290 289 286 286 281 278 279 276 275 280 274 277 285 282 282 286 290 292 291 288 287 289 289 290 291 291 292 293
297 297 298 298 298 299 299 299 299 300 300 299 293 292 292 291 289 294 294 290 288 290 290 289 290 289 291 291 291 291 292 292 291 290 290 293 291 291 293 295 295 295 297 297 294 291 287 287 284 286 282 284 283 282 284 286 287 288 288 289 292 289 287 284 278 274 276 275 279 280 280 282 286 284 283 284 284 284 286 283 287 291 291 291 291 292 293
297 297 297 298 298 298 299 299 299 299 299 300 296 293 292 291 289 293 294 294 288 289 290 286 289 290 291 290 291 289 289 288 289 286 287 288 289 290 291 294 295 296 298 295 288 289 285 284 281 280 279 281 277 279 279 280 281 282 284 283 283 288 286 282 282 273 274 275 270 270 274 275 282 285 283 287 287 290 290 288 286 291 292 292 291 291 292
296 296 296 297 297 298 298 299 299 299 299 300 296 293 292 292 291 291 293 293 291 285 288 293 294 292 290 289 291 289 288 287 288 286 287 286 287 288 289 293 296 298 297 292 289 288 285 285 281 281 278 280 280 278 275 279 280 282 281 283 284 282 283 282 285 277 273 273 275 275 274 279 282 282 286 288 288 290 287 282 282 287 289 291 292 291 292
296 296 296 297 297 298 298 299 299 299 299 300 295 293 289 292 290 290 293 291 293 287 285 286 294 293 290 288 290 290 290 288 288 286 285 286 287 288 289 292 291 294 294 291 288 287 284 282 282 278 273 277 279 280 278 275 275 278 280 283 282 283 279 282 278 272 278 279 274 277 275 279 281 285 284 287 287 290 288 274 279 284 289 292 291 291 291
296 296 296 297 297 297 298 298 299 299 299 300 296 291 289 292 292 290 292 290 285 282 286 284 291 290 289 289 289 290 290 288 287 287 287 282 283 287 288 290 290 290 293 290 288 287 285 282 282 281 280 278 280 282 278 280 278 280 280 282 276 278 276 280 281 281 278 281 273 270 277 281 279 280 284 286 291 290 280 278 280 284 284 285 289 290 292
296 296 296 296 297 297 298 298 298 298 299 300 296 293 290 292 291 291 291 288 289 285 286 288 287 290 287 287 289 287 288 292 291 287 285 285 285 289 290 289 291 289 288 288 289 286 284 280 276 277 278 275 277 282 278 280 279 277 283 279 273 274 278 273 275 280 279 279 279 277 276 278 282 280 286 287 289 277 281 287 283 285 284 284 288 289 290
296 295 295 295 296 297 297 298 298 298 299 299 296 290 291 292 292 289 290 286 285 284 284 284 287 286 286 291 289 289 287 289 291 290 288 286 288 290 289 287 287 287 286 288 287 282 284 281 283 272 276 278 278 278 276 276 277 282 279 285 282 282 281 279 280 276 271 269 276 270 274 284 288 286 284 283 284 284 286 285 282 282 283 283 285 288 286
295 295 295 295 295 296 296 297 297 297 298 299 296 290 290 292 291 291 291 292 288 285 284 288 287 287 285 284 286 291 294 291 290 290 289 290 291 291 284 284 289 289 287 289 285 284 282 279 274 275 276 281 278 277 279 276 276 279 282 285 283 284 282 278 281 284 281 279 277 279 285 286 288 290 287 287 284 285 285 288 289 284 281 283 284 284 285
295 295 295 295 295 295 296 296 297 296 297 298 296 291 288 290 291 292 291 291 287 284 285 286 286 286 287 289 289 287 286 288 288 290 292 289 291 288 289 290 289 285 286 282 281 274 273 271 271 274 276 272 270 274 272 278 276 276 274 280 280 285 286 284 281 279 284 282 285 283 284 285 287 288 289 292 291 283 283 286 286 287 284 282 284 285 283
295 295 296 296 295 295 295 295 296 296 296 297 293 289 286 288 288 292 294 287 287 288 287 286 288 288 289 289 289 289 288 288 290 287 291 294 287 285 286 290 289 286 284 286 290 285 280 279 273 275 271 273 281 274 270 270 275 274 282 280 282 280 284 278 283 282 280 280 281 282 280 282 284 280 281 287 288 281 282 284 287 285 282 283 284 283 284
295 295 296 296 296 296 295 295 294 295 295 295 293 288 287 288 288 289 291 290 288 284 285 287 285 283 283 284 287 289 290 289 289 290 287 293 290 284 285 288 288 286 284 284 285 287 281 280 279 276 283 279 278 276 280 273 274 276 278 279 279 280 279 285 283 280 284 285 285 283 284 284 286 284 282 280 281 283 281 284 284 284 281 282 281 282 283
295 295 295 295 295 296 296 296 294 293 294 293 291 290 289 287 288 287 288 285 285 288 280 280 283 287 288 289 290 287 289 290 292 289 290 288 293 293 291 292 290 292 289 287 285 287 282 283 277 278 283 280 284 281 277 283 276 278 284 280 277 283 281 286 278 282 285 286 283 284 281 282 283 284 286 286 285 282 282 282 282 282 281 281 280 280 280
295 295 295 295 295 295 296 296 295 292 292 292 290 286 285 285 287 289 288 288 285 285 284 279 281 288 289 287 284 288 290 290 290 291 290 290 288 291 291 288 287 287 286 285 288 290 284 281 274 273 282 280 284 278 277 281 282 281 286 284 285 281 286 284 282 283 279 280 282 280 282 284 286 282 282 282 283 285 282 282 283 283 283 282 281 280 281
295 295 294 294 294 294 295 295 296 294 290 289 287 286 286 286 289 287 284 281 286 284 282 279 283 284 285 285 288 289 289 289 291 291 292 291 292 292 292 293 289 288 288 286 285 284 281 279 284 282 279 280 278 273 276 278 281 281 277 279 281 285 284 281 283 280 281 285 283 284 285 281 285 286 288 287 284 284 283 282 283 283 283 282 282 280 278
294 294 294 294 293 293 294 295 295 295 291 288 287 286 287 287 287 289 289 285 284 285 283 281 281 283 286 286 288 288 288 290 290 292 291 291 292 292 292 291 290 289 289 289 285 284 282 286 282 278 276 278 283 277 275 278 277 276 275 281 283 287 284 284 286 285 286 286 285 289 290 287 290 292 291 287 283 284 283 284 284 283 282 282 282 281 280
294 294 294 294 293 293 293 294 294 294 293 289 284 286 286 290 290 290 290 289 287 287 285 285 286 282 281 284 288 286 287 289 290 290 290 289 290 290 290 290 289 288 288 288 286 283 283 282 282 280 278 282 282 274 276 275 275 279 279 282 283 282 285 290 290 290 285 284 287 287 288 288 286 284 284 282 283 284 283 281 281 282 282 281 280 280 281
294 294 294 294 293 293 293 293 294 293 291 283 284 282 281 285 290 288 290 289 284 285 286 283 280 281 284 284 284 285 286 287 289 289 288 288 287 287 287 287 287 288 286 286 287 284 281 281 277 279 279 280 279 278 278 271 272 278 278 280 285 280 280 281 281 287 286 283 284 284 282 279 279 280 280 281 280 283 282 280 280 279 278 279 280 279 278
294 294 294 294 294 293 293 293 293 292 289 284 282 277 276 275 283 289 290 288 286 285 283 283 279 281 281 284 283 283 283 285 286 286 286 286 286 286 286 286 285 286 285 284 283 283 283 278 279 281 281 285 282 279 277 275 273 272 281 280 282 282 281 280 278 278 280 280 279 279 280 280 280 282 281 279 278 279 278 276 277 278 278 277 277 277 278
293 294 294 294 293 292 292 293 293 291 285 282 279 277 278 281 285 290 290 288 287 285 283 281 279 278 279 283 283 285 284 284 285 285 285 286 285 286 286 286 285 287 287 282 282 281 279 280 280 281 281 285 280 270 272 272 273 277 278 279 278 277 278 278 279 279 280 283 285 284 282 281 281 283 283 279 278 278 278 276 275 275 275 274 273 273 272
293 294 294 294 293 292 291 292 292 291 286 288 290 290 290 289 292 291 288 287 284 278 280 282 278 279 278 278 284 284 285 285 285 285 284 285 281 284 285 285 284 284 289 286 281 280 281 280 279 281 283 280 279 272 271 274 275 276 277 277 277 277 277 278 279 280 281 277 278 284 283 284 281 277 279 278 277 277 276 275 274 275 276 276 276 275 274
292 293 294 293 293 292 291 291 290 289 288 282 277 280 283 290 291 291 288 285 282 280 281 278 275 275 275 281 280 283 285 281 280 283 282 285 283 283 280 283 283 281 282 282 281 281 280 281 279 279 281 279 276 277 277 276 273 274 276 276 276 275 278 279 278 279 275 275 276 278 280 279 277 278 277 277 276 275 275 275 276 276 275 276 275 274 273
292 293 293 292 291 291 290 289 281 281 276 279 279 281 284 291 292 290 285 283 279 277 277 277 278 275 274 275 275 280 284 282 278 281 281 282 284 281 282 280 281 281 282 285 280 278 278 279 282 282 278 274 278 277 275 275 275 275 276 276 276 277 279 280 276 274 274 275 278 278 278 279 279 278 277 276 276 276 276 275 276 277 276 274 274 273 273
292 293 292 291 290 288 282 283 281 278 275 273 277 285 290 292 290 284 283 284 282 276 274 272 273 270 274 274 274 278 285 280 281 278 280 282 281 282 279 280 279 279 280 279 278 280 279 284 281 278 276 278 276 274 275 276 275 275 276 277 277 277 277 278 276 275 276 277 277 278 278 279 278 277 276 275 275 275 275 275 274 276 276 275 274 273 272
292 291 290 288 277 277 272 274 281 277 276 282 286 290 290 288 284 282 281 281 281 282 276 273 272 271 272 273 277 278 281 276 280 278 278 278 278 279 279 280 278 282 278 278 278 278 280 283 279 276 274 274 273 274 273 273 273 275 276 276 276 275 276 277 277 277 276 275 275 276 276 276 275 276 276 275 274 274 276 276 276 277 276 274 272 272 269
291 289 276 275 271 269 267 271 273 282 288 286 285 281 276 276 271 273 275 273 275 280 275 276 271 271 271 274 272 281 280 274 278 276 277 279 278 274 279 280 280 281 274 277 277 283 278 277 276 276 275 275 274 272 271 270 270 270 271 273 274 274 275 275 276 279 277 276 274 274 275 275 275 274 276 274 274 273 272 271 271 273 273 272 271 271 270
283 274 271 267 267 268 271 276 284 287 283 282 276 271 270 268 269 268 268 267 272 272 273 273 270 270 272 275 275 282 279 276 274 276 275 279 278 275 278 276 280 278 273 276 277 284 276 274 273 275 274 275 273 271 270 269 268 267 268 269 269 270 272 272 272 275 278 278 278 276 277 278 277 274 273 272 271 270 270 270 270 270 270 269 268 267 266
275 275 270 265 267 272 281 283 283 279 280 271 266 266 264 267 270 266 268 267 268 269 271 270 271 271 274 274 275 274 282 277 273 272 274 276 281 276 278 275 277 277 272 272 274 279 277 274 272 274 273 274 271 270 268 268 265 265 265 266 268 268 268 269 270 270 268 267 268 269 273 276 277 276 275 273 272 270 269 267 267 266 266 266 265 264 263
278 274 270 268 272 269 274 276 272 267 267 264 264 264 264 265 263 264 267 264 265 266 268 269 271 272 275 275 276 274 279 279 277 277 277 274 280 279 274 272 280 272 270 269 275 274 272 270 269 273 274 270 268 267 266 266 265 264 264 265 267 267 267 266 265 267 268 266 266 265 267 270 271 271 272 271 269 267 266 265 264 263 263 263 263 263 263
281 279 277 274 274 273 271 269 265 265 263 261 262 260 258 262 262 261 265 263 264 265 270 271 270 270 271 274 273 276 275 275 276 276 275 272 279 273 271 269 269 271 268 273 274 270 273 270 271 269 270 266 265 264 264 264 264 262 262 263 265 265 265 265 265 264 266 264 263 263 264 265 265 265 266 266 265 264 263 263 262 262 261 261 261 261 262
288 285 279 268 267 264 262 264 266 262 260 258 259 258 258 259 262 262 263 266 264 265 268 270 271 278 277 276 273 275 276 280 277 272 272 271 278 273 268 267 269 266 270 271 271 270 268 268 269 270 266 264 263 262 263 262 263 262 261 262 263 264 264 263 262 262 262 262 262 261 261 260 259 260 262 262 261 260 260 261 261 261 261 261 261 260 260
280 277 269 264 265 265 266 263 268 264 260 255 257 257 257 257 261 257 259 263 263 264 267 271 272 272 269 273 273 274 273 276 278 269 268 269 269 268 268 266 268 271 272 268 268 269 268 267 269 268 265 264 262 262 261 261 262 263 262 261 261 262 263 263 263 262 262 262 262 261 261 260 259 259 259 259 261 260 260 259 260 261 261 260 259 259 259
272 268 264 262 262 266 265 262 263 259 256 259 265 255 255 259 259 255 261 263 264 266 269 269 270 271 268 268 269 270 273 269 275 270 267 268 267 267 267 268 266 264 267 267 265 265 266 267 268 266 266 264 263 261 260 259 260 262 262 260 260 260 260 260 260 260 259 259 259 260 259 259 258 257 257 257 257 258 258 258 259 259 260 259 259 258 258
267 266 265 263 263 262 258 258 257 256 260 260 257 255 253 255 256 260 260 258 260 265 269 268 268 270 268 267 269 268 262 263 267 266 263 263 266 265 267 266 266 265 263 263 264 266 267 268 268 267 266 264 261 259 258 258 259 260 262 260 258 258 258 258 258 258 258 258 258 258 257 258 258 257 256 256 256 256 256 256 257 257 258 258 257 257 257
269 267 261 261 261 261 256 256 258 259 258 255 254 254 257 259 257 259 258 258 262 264 265 264 268 268 267 265 264 265 263 260 265 266 263 262 262 265 268 267 264 262 264 262 261 262 264 267 267 265 262 261 258 257 256 256 257 258 257 257 257 256 256 256 256 256 256 256 256 256 256 256 256 257 257 256 255 255 254 255 255 255 256 256 256 256 256
266 267 260 258 260 260 258 257 253 253 252 255 254 253 254 254 257 260 263 260 261 264 264 266 267 263 264 265 267 265 261 259 266 266 265 265 267 260 261 260 258 259 258 261 264 265 267 267 265 262 260 259 258 257 256 255 255 255 255 255 255 255 255 255 254 254 254 254 254 254 254 255 255 255 255 255 254 254 253 253 253 253 254 254 254 255 254
268 262 262 260 258 256 258 260 259 258 258 256 251 255 257 261 259 260 261 260 261 263 263 264 264 263 262 262 259 263 263 262 262 262 261 257 259 262 261 258 260 261 262 263 266 266 265 263 260 258 256 256 256 255 254 254 253 253 253 253 253 253 253 253 253 252 252 252 252 253 252 253 255 255 255 255 254 253 253 254 253 252 252 251 252 252 253
263 261 261 259 260 259 260 258 260 257 257 258 257 257 255 256 259 258 260 260 261 261 266 273 272 268 262 260 259 259 259 256 258 262 261 258 256 254 257 256 256 262 264 261 260 262 259 258 257 256 255 255 254 254 253 253 252 252 252 252 252 252 252 252 252 251 251 251 251 251 251 251 252 253 252 252 252 253 253 253 252 251 251 251 251 250 251
262 261 257 257 257 258 259 258 256 255 256 256 254 255 255 254 255 257 259 256 258 258 260 259 257 254 256 257 257 257 259 260 261 257 260 262 256 253 258 261 261 262 262 260 258 258 258 258 257 255 254 254 254 253 252 253 252 251 251 251 251 251 252 252 251 251 250 250 250 251 250 249 250 250 251 251 251 253 253 253 252 250 250 250 249 249 248
259 258 257 255 254 255 253 255 255 255 255 254 252 252 254 254 257 257 258 255 256 262 261 255 254 254 256 259 260 256 256 258 254 258 261 257 253 258 255 258 264 261 260 260 257 254 253 253 254 255 255 255 253 253 252 251 250 250 250 250 251 251 251 251 251 250 250 249 249 249 249 248 248 248 250 252 253 253 253 252 252 250 249 249 248 248 248
Wind_Speed
8 9 9 11 12 12 12 11 12 12 13 5 2 2 4 9 12 3 19 21 22 16 10 10 14 13 7 6 5 6 5 5 8 14 11 6 3 2 2 8 9 4 6 10 9 11 5 16 12 4 2 2 1 9 19 18 16 9 4 11 4 9 6 8 3 3 2 2 2 1 0 4 4 5 3 7 13 14 7 1 3 8 2 4 3 5 7
8 9 10 11 12 12 13 13 13 13 12 4 3 7 8 6 7 6 14 24 20 17 18 20 16 11 6 13 5 5 4 9 9 11 15 8 4 8 5 3 4 8 6 13 18 16 10 5 4 3 1 3 2 17 17 24 14 14 13 14 11 6 2 8 9 5 1 3 1 2 1 1 9 9 5 4 2 3 3 5 1 1 8 7 6 12 14
9 9 11 11 13 13 13 13 13 13 14 10 5 6 3 4 5 9 12 19 18 19 14 16 14 13 11 12 13 11 4 8 14 12 14 6 7 6 5 7 10 3 6 10 6 6 2 8 0 3 3 3 0 17 22 23 16 5 6 8 8 7 7 10 10 11 11 9 10 13 15 14 1 2 6 9 12 10 7 10 5 8 5 9 7 14 8
9 11 12 13 13 14 14 13 14 15 15 15 8 7 3 7 8 8 12 14 16 12 14 16 19 16 14 13 12 13 7 4 12 11 9 0 4 3 5 6 8 5 12 6 6 8 2 8 6 6 4 3 1 8 21 19 12 10 13 11 6 4 4 8 13 17 17 18 8 5 12 8 10 15 17 15 11 8 6 3 4 15 13 10 16 19 5
11 12 13 14 15 15 15 15 16 16 16 16 9 6 8 1 10 11 12 12 15 15 14 16 18 18 18 13 9 14 17 9 6 15 7 3 2 2 8 10 12 6 15 12 11 9 5 4 12 7 10 1 3 7 16 12 12 19 13 13 6 4 6 12 12 14 5 4 4 9 17 16 18 13 12 15 15 14 12 12 19 14 9 8 18 15 11
12 13 14 15 16 16 16 16 17 17 17 17 9 10 7 10 7 9 13 14 14 18 17 16 14 11 20 10 12 16 17 16 12 8 3 4 5 7 0 8 13 22 23 19 13 11 5 5 12 7 3 6 5 9 8 13 16 19 8 12 9 11 13 16 10 10 1 4 8 11 14 13 12 17 17 17 18 16 18 20 24 6 10 22 8 7 18
13 14 15 16 17 17 16 17 18 18 17 14 11 11 7 8 4 9 12 13 18 18 16 19 18 19 19 4 14 16 17 18 15 11 6 3 6 6 10 16 16 18 11 11 7 12 9 7 7 12 11 15 14 10 2 4 9 17 9 13 2 6 4 9 11 6 4 3 4 8 9 4 4 10 12 15 17 23 25 25 23 15 13 18 4 11 12
14 15 16 17 19 18 17 17 19 19 18 13 14 16 10 11 9 9 8 1 17 23 24 22 21 18 20 11 12 13 15 17 11 9 15 11 13 11 11 19 18 18 19 19 18 22 25 24 21 14 18 11 11 13 9 7 3 3 5 6 4 3 2 8 3 5 2 4 5 1 8 7 5 6 11 14 18 20 23 22 18 12 17 19 13 8 16
15 16 17 18 19 19 18 19 19 19 15 10 13 11 14 5 11 9 9 11 15 18 18 18 21 15 15 13 12 12 18 17 15 12 12 23 19 17 21 21 19 17 20 19 21 24 13 6 9 16 22 19 11 11 4 10 15 10 6 4 1 5 0 2 5 6 1 2 4 4 3 2 7 9 13 17 17 17 17 16 17 15 23 24 10 12 21
15 16 16 18 19 19 19 19 21 18 18 12 8 14 11 5 9 12 15 11 16 16 14 15 17 17 16 14 15 13 20 16 15 10 6 4 3 10 13 16 17 18 19 26 19 8 8 9 11 13 6 7 7 6 12 17 15 5 4 1 6 3 5 4 4 7 1 2 5 7 6 3 3 10 22 24 16 14 13 16 15 20 21 9 11 27 15
13 15 16 18 19 19 20 20 21 22 12 10 8 8 8 12 12 12 9 14 15 18 18 17 21 13 18 19 19 15 19 20 18 16 8 9 8 7 13 17 15 14 23 13 7 13 11 14 12 10 10 9 8 6 12 18 18 18 16 7 5 8 9 7 6 7 3 1 4 3 4 2 13 14 7 14 19 23 19 21 23 19 13 19 20 16 2
14 16 16 18 20 21 22 21 22 22 17 11 11 8 4 1 8 12 11 14 16 17 18 18 20 16 25 21 20 20 20 23 23 18 14 13 10 11 16 17 16 13 4 12 16 18 15 16 16 14 11 9 8 9 15 18 12 6 8 13 11 12 9 7 3 7 7 5 5 6 6 14 14 6 14 21 23 23 25 22 13 16 16 17 18 18 15
15 16 17 18 20 22 23 22 23 22 19 11 8 10 3 5 7 11 12 14 14 17 17 18 19 17 21 22 20 20 23 24 22 17 11 18 6 6 12 17 17 6 12 20 22 19 14 10 10 10 8 8 6 7 13 15 12 8 5 7 12 12 12 7 3 6 5 4 9 7 18 9 3 2 6 15 19 17 11 12 13 12 16 23 25 26 19
16 16 18 19 22 23 24 23 24 22 20 13 6 5 2 2 9 12 12 13 14 14 16 17 18 19 22 24 21 19 20 19 10 4 8 10 18 17 10 7 8 18 16 17 16 16 10 8 8 9 3 4 3 3 4 5 8 10 11 8 7 14 7 7 5 0 9 6 12 12 6 8 10 6 5 6 7 8 13 13 20 22 20 18 20 18 16
16 17 19 20 22 23 25 25 24 22 19 17 4 4 4 5 6 5 7 12 15 14 15 20 21 21 21 19 19 17 15 14 14 2 1 2 2 1 3 7 17 17 14 17 8 5 4 5 7 8 3 9 9 10 2 5 2 3 0 2 2 6 12 6 10 2 5 8 2 2 6 9 18 4 2 4 6 10 10 10 16 10 15 15 16 17 16
16 19 20 20 22 24 25 25 24 22 19 18 2 4 5 5 5 2 5 10 16 15 16 14 21 21 19 15 20 22 17 15 11 6 7 2 1 2 2 8 13 14 8 6 5 9 6 11 10 13 11 13 5 7 3 2 2 1 2 3 3 4 3 5 12 5 5 5 9 9 10 16 1 6 8 9 10 13 7 5 16 6 11 15 20 21 17
17 19 20 20 22 24 25 25 25 23 20 17 4 2 4 3 3 2 7 5 12 9 3 0 11 15 16 13 17 17 17 16 15 13 10 9 6 5 6 4 1 6 13 7 6 8 6 5 6 4 3 4 7 10 5 4 5 4 2 3 4 7 5 7 4 4 8 9 6 10 5 8 3 8 5 10 8 12 9 1 9 6 15 17 17 18 17
18 18 20 20 21 23 25 26 26 24 21 20 7 2 3 5 3 2 5 9 9 4 1 4 13 15 13 13 16 8 7 7 5 6 8 3 6 7 7 5 8 5 3 11 6 9 9 7 13 11 11 3 3 8 12 12 12 13 15 12 5 4 0 6 15 10 4 7 5 3 7 5 3 6 3 9 12 13 9 13 9 3 3 3 7 14 16
18 19 20 20 20 22 24 26 26 24 22 20 9 2 4 4 2 1 7 5 8 8 2 1 5 4 2 2 4 4 3 15 13 11 9 6 3 8 12 2 4 8 1 9 8 8 10 5 2 3 7 4 3 12 5 9 9 4 14 9 4 6 7 1 3 10 12 10 8 9 6 7 8 1 11 9 10 7 17 7 3 3 1 3 10 11 12
18 18 19 20 20 20 23 26 26 25 22 22 11 2 3 3 4 1 5 10 4 9 1 3 1 5 3 9 14 11 6 8 11 14 15 13 7 13 8 7 3 4 4 4 11 3 7 9 9 1 6 8 6 4 4 4 2 14 9 16 13 12 10 12 13 3 6 3 7 1 9 7 14 11 3 5 8 6 4 3 1 2 1 4 4 9 6
18 18 19 19 20 20 21 24 26 25 23 23 12 4 2 6 9 4 2 11 13 13 1 1 5 6 3 4 2 5 19 19 12 16 8 12 13 13 14 14 15 9 9 10 14 11 6 7 5 3 2 6 4 2 9 6 1 4 5 12 7 6 10 8 9 10 15 12 10 11 7 6 11 20 14 10 7 1 2 6 4 2 3 4 4 3 6
18 19 19 20 20 21 20 21 25 25 23 22 17 4 5 7 6 6 9 10 10 6 6 3 2 7 8 5 5 5 3 3 1 2 16 12 8 4 2 8 9 2 3 5 6 2 1 4 1 4 6 1 3 4 2 9 8 2 3 5 9 12 13 4 10 3 8 11 12 1 2 6 6 4 2 12 11 1 2 1 2 6 4 3 3 6 5
18 19 20 21 20 20 20 19 22 26 25 23 14 5 6 6 8 11 2 19 8 9 4 5 2 4 1 3 4 4 1 0 1 2 2 22 5 0 3 12 10 1 2 1 10 7 7 7 4 5 4 1 9 4 2 2 4 4 9 4 0 2 4 2 6 5 2 4 2 1 1 3 4 2 1 6 9 1 2 2 1 1 3 8 4 4 6
18 19 21 22 22 21 20 17 17 21 26 24 13 7 5 7 7 7 5 8 11 8 5 5 4 5 2 4 6 7 4 2 4 1 5 4 18 2 3 3 2 2 1 4 5 10 7 4 5 3 6 6 7 5 10 4 5 4 4 1 3 2 2 5 5 2 7 14 7 5 6 2 8 2 1 2 1 3 1 1 1 1 3 3 2 3 6
19 20 21 22 23 23 22 18 14 15 19 25 15 6 4 6 10 8 2 7 7 12 6 1 7 2 2 2 2 2 1 4 3 1 1 4 4 13 13 9 7 9 11 9 2 9 3 7 1 2 7 5 7 8 2 9 4 6 10 5 4 4 3 5 5 7 14 10 7 7 1 3 3 5 2 3 6 3 2 1 1 3 2 2 1 1 3
19 20 22 22 23 24 24 22 16 11 12 16 17 9 7 6 9 7 0 4 4 5 10 4 1 3 2 2 4 3 8 5 4 0 2 1 3 2 9 9 3 5 7 2 4 9 6 5 4 1 7 3 1 3 6 4 6 5 10 11 7 5 11 8 8 8 2 4 1 3 4 1 2 4 6 4 5 8 5 4 5 4 5 4 5 4 1
20 21 22 23 24 24 24 24 21 10 6 7 6 7 7 6 8 11 7 5 4 5 5 6 4 2 2 9 2 3 4 5 3 4 6 6 3 6 5 10 13 5 8 5 4 6 4 3 6 5 3 3 5 3 3 3 5 7 4 2 3 9 11 2 6 5 7 12 8 8 7 5 7 9 13 13 6 5 6 5 4 4 6 5 7 5 4
20 21 22 23 24 24 24 25 24 17 3 3 2 2 4 7 8 9 6 6 1 5 9 9 7 6 3 6 5 3 7 6 3 7 9 6 5 5 9 10 10 10 7 9 3 2 3 8 5 1 3 1 7 1 0 1 5 3 1 7 6 10 9 9 11 11 15 8 10 14 8 5 10 15 14 6 8 8 10 9 7 5 3 5 9 8 5
21 21 22 23 24 24 24 24 25 22 8 2 1 1 1 2 7 12 14 12 4 8 12 9 6 6 4 1 4 8 9 8 8 10 10 8 8 7 7 6 5 5 5 6 6 5 5 3 3 7 4 5 7 3 3 3 3 7 6 6 7 4 7 17 14 11 2 5 14 11 7 10 4 0 5 8 7 9 6 4 3 5 6 5 3 3 10
22 22 23 23 23 23 23 22 24 25 11 1 3 4 4 1 6 12 17 12 7 3 8 9 7 1 2 5 6 6 6 7 7 14 14 10 9 7 6 5 5 2 4 4 7 6 2 5 0 1 2 2 4 5 5 2 3 6 2 4 6 2 1 1 3 5 6 3 5 5 4 6 4 4 4 5 4 6 9 6 5 5 4 3 7 6 3
23 23 23 23 23 22 22 20 19 22 16 4 3 6 6 5 6 11 19 12 9 1 5 6 8 3 4 1 1 7 9 6 8 10 10 7 5 4 2 2 3 1 4 3 6 4 5 3 4 0 1 0 3 6 7 6 3 2 4 5 5 4 4 3 1 1 7 7 6 6 5 5 4 7 7 4 4 6 7 4 5 6 7 8 6 5 6
23 23 22 22 22 21 21 20 15 12 10 12 10 5 1 1 6 13 13 10 7 3 5 9 5 3 2 2 2 1 3 3 1 3 5 5 6 7 7 7 3 5 5 6 3 4 2 1 3 4 4 1 6 4 4 4 5 5 2 4 2 2 2 4 3 3 4 9 13 10 5 2 1 4 7 4 5 6 11 10 7 8 9 9 7 7 6
23 22 22 21 21 20 18 19 15 7 5 8 13 12 9 5 18 16 7 7 3 3 1 6 7 2 3 3 0 5 5 2 6 4 5 5 4 5 5 5 4 5 5 7 5 3 1 2 1 4 0 1 4 3 4 4 4 1 1 1 3 3 3 2 3 4 5 1 2 7 10 11 6 5 10 10 8 10 12 13 9 8 9 10 10 9 8
22 22 21 21 21 18 14 16 13 7 6 5 4 6 8 19 17 20 10 1 3 1 4 5 5 5 2 2 4 2 4 3 3 3 4 5 2 4 3 4 4 5 7 5 1 4 2 2 3 3 1 2 1 4 1 2 2 2 1 1 1 2 4 6 4 4 2 3 3 3 6 11 12 9 11 11 10 7 7 8 9 12 9 10 8 7 5
22 21 20 21 19 13 7 10 9 8 4 3 2 4 10 25 21 12 8 1 3 4 4 4 2 6 5 4 4 2 2 4 5 4 5 2 3 3 1 5 5 5 1 2 4 2 2 1 3 5 4 1 4 1 0 4 3 3 1 1 1 2 5 7 2 2 2 3 8 9 12 15 16 11 10 10 11 8 9 6 7 14 12 7 7 5 6
21 20 20 19 12 5 3 5 7 7 6 3 6 13 25 23 15 4 5 6 5 4 5 1 3 3 2 7 5 1 1 4 3 3 3 2 3 2 3 2 5 2 0 3 2 2 2 2 2 2 1 4 2 1 3 6 5 2 2 1 1 1 2 2 8 5 5 7 10 9 10 8 14 12 9 8 8 7 8 9 5 9 12 10 6 5 6
20 17 16 9 6 5 5 1 1 3 1 8 14 22 20 10 0 3 5 5 6 3 6 3 7 5 3 2 2 3 1 4 1 5 4 4 3 1 3 4 4 1 4 3 3 3 1 2 5 5 4 4 2 4 5 6 7 3 3 2 3 1 4 8 8 13 14 11 10 9 9 13 10 8 10 9 7 6 9 9 8 11 12 11 7 7 5
17 10 6 6 6 5 4 4 2 8 16 17 11 3 8 9 3 5 6 6 4 5 7 6 6 2 3 2 5 4 3 1 3 3 2 1 2 3 1 3 2 3 3 0 1 0 2 5 4 4 3 3 5 7 7 7 6 6 6 6 6 4 3 3 4 13 17 12 8 9 9 10 9 5 10 8 7 8 7 4 5 6 8 8 7 6 6
7 3 5 4 3 1 0 6 7 18 10 2 4 2 2 2 4 4 3 2 3 6 5 6 4 3 3 5 3 3 3 2 3 2 3 2 2 1 1 4 1 4 0 2 3 1 2 3 3 3 4 3 2 5 7 5 6 6 7 7 6 6 4 5 6 1 6 8 12 7 8 15 17 11 7 11 9 8 6 8 8 8 7 7 7 5 7
6 7 2 3 2 3 6 6 12 6 2 2 4 3 2 3 5 2 2 4 3 2 2 5 0 1 3 3 2 4 5 3 3 3 3 1 2 3 1 3 2 3 1 2 2 3 4 4 1 4 2 2 2 5 6 6 6 7 7 8 7 7 7 8 8 8 12 12 10 9 9 10 10 12 11 10 11 11 9 9 8 7 8 7 5 8 7
3 2 2 1 4 3 4 6 5 5 3 2 3 3 2 4 2 0 1 3 3 2 1 0 4 5 4 3 4 6 4 3 1 1 3 3 2 3 4 2 1 5 0 2 2 4 2 4 2 3 3 2 2 4 5 5 6 6 7 8 7 7 7 10 11 8 8 12 12 13 11 12 12 11 10 11 11 11 9 8 8 7 7 8 8 6 2
3 2 2 3 2 3 4 3 4 2 2 1 3 2 1 1 1 4 1 3 1 2 4 2 3 3 4 3 2 1 1 1 1 2 2 4 4 3 1 2 3 4 2 2 2 2 3 4 4 2 1 2 4 4 5 4 6 6 8 8 8 8 8 10 14 13 13 13 10 9 10 13 14 11 9 11 11 10 9 9 9 8 8 5 5 5 5
9 7 1 2 2 2 1 3 3 3 2 4 3 2 3 3 1 1 1 1 2 2 2 1 1 0 1 1 2 2 1 2 2 3 5 2 1 3 4 2 2 4 1 2 3 2 4 2 3 2 3 2 3 3 4 4 4 4 6 7 8 7 8 9 11 11 12 12 13 11 9 14 15 10 8 10 12 13 10 8 8 7 5 5 6 5 5
2 1 2 2 2 3 2 2 1 3 3 2 3 2 2 4 5 5 2 2 3 2 3 1 1 2 2 5 2 3 3 2 2 3 3 1 3 2 2 3 1 3 3 3 2 5 2 1 1 2 2 3 2 2 2 3 3 3 6 8 8 8 8 10 9 12 13 11 12 10 10 11 10 8 9 9 10 12 9 9 7 6 6 6 6 6 5
1 3 3 2 2 3 3 2 3 4 3 3 2 1 1 2 1 1 2 2 2 2 3 2 3 5 4 4 1 2 3 0 3 4 0 1 3 2 3 1 0 4 3 2 3 1 3 1 1 4 3 3 2 1 1 2 4 3 5 6 8 8 7 10 10 9 10 10 9 8 10 8 9 9 10 9 9 8 8 8 5 5 5 6 6 6 5
4 1 1 3 4 4 2 0 2 3 1 1 1 2 1 2 2 1 1 1 2 5 5 3 2 3 4 2 3 0 3 2 3 1 0 2 3 2 1 0 3 4 2 4 3 2 2 2 5 3 4 4 3 2 2 2 3 3 2 6 6 8 8 9 9 10 8 7 6 9 8 8 8 8 8 8 7 7 7 7 6 5 3 5 6 5 4
2 3 2 1 3 1 2 3 2 0 0 0 1 2 2 2 3 4 2 1 3 4 5 4 1 2 4 2 2 3 3 2 3 2 2 3 2 0 3 3 1 1 4 1 1 1 1 2 2 3 4 4 4 3 2 3 3 6 6 6 6 7 7 9 9 10 7 7 8 8 7 7 7 6 6 7 7 7 6 6 6 6 6 5 4 3 3
2 0 3 4 1 1 5 1 1 0 0 1 2 2 4 2 2 5 5 2 5 3 4 3 2 4 5 3 4 2 1 1 2 2 1 1 2 5 2 4 1 1 1 3 2 1 4 4 4 5 3 3 4 4 3 3 4 5 5 5 6 6 6 7 8 7 7 7 6 6 5 6 6 5 6 7 7 5 5 4 4 4 4 4 3 4 4
3 3 3 2 1 2 0 0 3 3 5 5 2 3 6 6 4 5 7 5 5 4 3 2 0 3 1 1 3 3 3 3 4 1 2 4 2 0 2 2 1 1 3 2 1 3 2 3 4 5 5 4 3 3 3 3 3 4 4 5 5 5 5 7 7 6 6 6 6 6 5 4 4 5 4 3 5 4 3 3 4 4 4 4 3 3 3
5 5 7 5 3 2 1 1 5 6 6 7 7 6 5 4 6 4 5 7 5 5 3 2 1 4 1 2 2 2 1 2 1 1 4 2 0 0 3 2 2 3 2 1 2 2 2 2 4 7 4 4 4 3 3 2 3 5 5 4 4 5 6 6 6 6 5 4 5 5 3 3 2 2 3 5 2 1 2 4 4 4 4 3 4 4 3
3 6 3 1 3 2 5 4 3 2 7 6 6 6 5 3 3 5 5 3 7 4 6 3 1 2 2 3 2 2 1 1 5 2 2 1 1 3 0 1 1 3 1 2 3 3 4 3 4 5 6 5 3 3 3 3 3 4 4 4 3 4 4 5 4 4 3 2 2 2 5 5 1 1 0 1 2 4 4 4 4 4 4 2 2 3 3
4 5 3 1 2 4 2 1 3 4 1 1 1 3 3 4 6 6 4 4 3 7 1 1 2 2 3 2 1 2 1 4 0 1 4 2 2 2 1 4 4 3 2 5 4 3 4 4 5 4 3 3 3 4 3 4 3 3 3 3 2 3 3 3 3 2 2 4 4 4 4 3 3 2 2 2 3 4 6 4 3 3 4 3 3 3 2
Wind_Direction
323 316 313 307 307 308 304 298 298 306 318 315 237 141 232 223 239 133 164 154 154 159 189 172 191 206 188 134 154 154 157 189 192 179 189 217 228 132 150 168 143 211 154 156 142 155 142 172 185 134 75 131 196 150 145 143 153 116 115 104 197 84 104 93 75 85 289 318 272 283 40 166 231 257 182 152 191 197 204 131 153 179 191 232 246 243 268
326 314 308 304 306 305 305 298 297 303 306 276 266 229 245 234 217 234 175 160 160 169 185 181 188 190 169 194 166 137 150 167 184 213 178 179 188 168 153 102 251 153 168 160 164 168 135 203 105 106 148 115 184 140 142 153 162 162 184 157 192 92 256 120 128 127 146 343 34 215 297 174 214 210 183 183 81 162 186 91 54 316 217 194 186 245 260
313 303 304 308 307 308 300 295 294 297 296 282 216 237 234 245 226 209 180 169 168 186 184 177 178 182 168 177 176 159 173 197 183 199 193 203 177 145 187 174 143 125 165 161 147 156 93 142 285 104 139 127 28 153 156 164 171 139 113 116 149 101 165 137 142 156 174 182 192 196 199 198 133 88 152 198 184 169 134 211 184 230 213 155 195 241 244
309 306 309 309 310 306 302 296 293 295 296 285 256 243 244 212 227 178 178 175 175 195 186 186 177 167 163 168 189 169 169 185 195 199 230 305 188 144 121 81 88 123 142 136 154 177 339 138 172 132 149 116 289 184 163 167 167 147 146 127 99 117 150 180 170 173 186 198 189 62 92 95 180 202 186 194 194 173 175 106 149 218 219 182 225 232 269
308 310 311 309 309 305 300 298 293 297 296 282 266 250 233 291 226 182 182 148 183 188 182 184 178 181 164 183 153 180 185 164 201 187 217 285 179 112 149 151 142 172 150 165 172 172 76 67 131 161 143 43 138 173 169 159 153 154 151 153 97 111 168 210 195 197 176 106 145 159 147 172 197 171 188 187 185 188 185 195 216 210 77 243 234 227 240
312 312 311 310 307 307 303 298 296 298 298 283 268 248 208 227 222 222 178 165 178 174 188 184 181 163 175 180 156 177 180 177 177 163 185 329 250 138 23 171 173 166 173 160 162 168 144 131 160 135 125 96 119 136 190 168 177 161 174 178 166 163 183 201 168 196 102 146 141 158 170 182 179 179 183 181 188 185 197 217 228 136 191 229 233 142 227
315 312 309 308 308 308 307 300 299 300 293 282 254 246 218 219 252 202 205 179 165 179 164 174 175 173 177 151 175 174 175 181 179 162 145 198 236 193 158 181 172 177 153 149 156 162 140 198 166 168 166 158 150 150 129 275 188 167 169 187 175 136 235 183 173 160 88 27 147 155 145 137 135 182 184 190 181 195 203 218 221 206 229 240 176 205 239
312 310 310 310 312 311 309 306 302 302 296 287 266 232 219 200 185 179 193 335 164 165 168 177 172 179 175 165 192 165 170 176 174 175 156 170 202 193 180 182 175 170 171 173 174 183 192 179 177 185 150 146 158 165 170 142 166 173 174 174 322 123 273 115 110 113 48 1 36 41 147 141 171 199 190 191 197 204 210 216 223 218 250 253 244 279 279
314 316 317 314 315 314 312 308 306 307 310 277 252 226 207 224 207 184 155 165 168 166 165 172 174 169 179 180 170 165 174 179 173 177 188 170 177 189 191 174 172 176 183 188 199 193 185 133 165 149 154 168 183 139 228 150 159 163 143 173 325 72 260 38 113 113 27 353 79 67 75 130 171 198 208 205 198 206 212 215 213 198 222 231 232 267 255
327 324 322 321 322 318 314 313 310 312 308 282 250 227 184 200 281 205 163 160 165 166 172 166 160 188 182 174 169 173 178 172 171 164 222 245 267 210 184 171 160 183 183 201 198 125 118 140 127 149 84 83 127 139 146 149 153 127 124 174 125 136 122 105 102 128 193 265 123 111 107 99 319 256 218 202 201 213 214 225 216 211 220 212 207 233 235
328 331 330 330 328 322 318 316 315 316 308 266 251 239 181 189 197 185 170 151 171 171 166 177 179 170 163 178 169 182 175 172 177 168 183 198 234 142 150 162 177 181 198 185 131 117 120 115 110 94 98 95 92 107 140 153 162 164 157 144 161 136 134 149 170 143 187 168 145 105 115 168 234 238 175 167 196 206 210 219 216 218 196 219 222 239 108
330 333 333 334 331 328 324 322 315 313 301 269 237 253 223 131 253 171 165 168 167 170 170 174 179 166 176 174 174 178 176 178 188 187 168 190 186 170 165 177 173 190 149 121 108 104 102 87 78 66 65 82 98 128 147 164 180 172 168 159 157 154 138 149 172 122 151 198 116 138 202 232 238 100 164 182 199 203 210 224 221 225 226 246 257 254 240
333 336 336 334 333 330 328 321 314 312 301 281 227 240 244 124 252 193 154 158 165 172 171 174 178 167 171 171 172 177 177 182 190 190 177 170 174 199 179 176 190 149 145 122 119 106 100 102 80 102 94 73 52 95 152 166 175 178 174 151 152 163 162 157 116 121 56 121 165 165 219 234 14 262 196 192 199 206 201 243 243 231 218 222 233 238 240
338 338 334 336 335 333 328 321 318 316 310 302 238 247 243 173 237 179 164 155 163 174 172 166 174 167 170 172 171 172 174 178 168 132 169 181 172 180 180 176 156 142 153 125 107 114 102 119 112 112 100 71 64 109 210 181 185 174 184 194 184 172 139 144 156 140 158 195 179 214 351 338 273 249 212 152 168 140 174 217 239 223 222 220 233 238 236
339 337 338 340 339 332 329 324 320 322 319 314 217 261 229 225 249 177 144 145 163 175 176 178 173 168 161 166 166 161 164 163 162 189 354 22 80 241 193 149 147 149 148 121 131 109 140 108 125 117 135 136 166 191 57 176 295 353 314 52 102 173 169 189 138 244 136 133 193 348 277 264 247 213 2 155 149 162 177 197 262 227 221 219 229 231 231
342 342 344 344 340 334 331 327 326 328 326 324 254 243 222 258 240 257 146 151 145 171 192 179 163 158 162 164 161 158 164 164 164 138 128 51 21 68 348 155 148 142 125 104 117 124 156 147 155 152 173 183 163 91 213 141 168 334 41 116 80 42 106 160 168 157 90 143 174 202 205 236 131 149 171 169 163 155 130 95 260 245 182 215 212 224 225
347 346 347 345 342 337 335 332 332 334 330 335 302 232 242 292 258 183 123 116 149 154 45 190 158 154 144 154 157 166 166 167 162 157 155 161 159 144 148 155 24 153 142 110 142 133 131 130 164 132 21 105 148 184 111 136 146 155 72 88 133 151 161 134 120 165 194 171 174 216 216 246 215 177 188 172 123 107 94 95 266 263 202 214 201 209 214
350 347 347 346 342 341 341 338 339 338 336 343 341 229 253 291 249 202 91 124 111 42 303 317 165 161 171 165 156 138 110 98 85 76 119 158 130 143 158 161 147 310 173 149 155 148 160 158 171 180 169 225 125 105 183 174 177 176 178 169 148 154 254 191 197 193 172 170 236 322 285 262 219 220 174 143 145 121 131 209 226 253 216 211 168 206 212
350 349 349 346 344 345 344 343 343 342 343 350 348 251 238 273 278 257 117 86 123 146 239 32 333 131 139 61 144 139 166 151 140 125 123 110 225 168 145 163 132 167 13 148 151 166 170 195 9 115 129 216 202 190 109 151 187 110 131 126 148 185 162 302 134 194 187 198 195 227 261 237 177 305 155 174 113 192 207 218 194 168 240 195 186 197 221
352 351 348 348 347 348 348 348 348 347 349 353 349 217 270 328 339 43 144 121 69 106 73 9 350 140 269 153 150 146 102 148 161 143 159 152 162 131 105 147 297 94 102 119 167 195 166 190 181 135 163 163 208 128 115 195 103 160 176 183 178 176 164 189 195 163 44 63 203 48 254 255 132 113 96 300 175 237 168 172 301 207 187 179 210 203 222
355 352 350 350 350 351 352 351 352 352 353 354 347 253 307 347 353 16 340 136 121 112 73 60 57 50 66 46 27 162 160 167 167 158 164 136 166 153 164 172 176 166 175 167 177 192 178 175 155 171 210 137 189 111 185 138 66 307 145 172 181 156 172 197 202 183 184 180 187 209 222 100 161 139 182 199 196 193 180 123 186 227 175 195 205 233 193
358 354 353 353 352 353 355 355 355 357 358 357 349 277 74 336 351 15 37 60 82 78 123 180 148 102 79 70 104 82 58 80 198 149 138 132 171 175 185 155 166 117 176 114 60 36 352 150 93 114 151 142 10 160 177 136 185 194 333 129 178 209 201 154 183 184 176 204 212 213 231 167 202 177 171 168 202 120 189 138 197 167 225 177 154 217 212
1 359 357 358 357 356 356 358 358 2 6 1 1 31 54 360 352 332 263 84 60 81 45 57 83 106 84 114 112 55 106 25 1 13 215 139 194 1 149 144 190 206 74 128 177 152 158 125 163 151 72 167 154 116 3 112 148 181 172 253 39 3 181 136 124 249 302 302 189 246 250 215 232 300 265 186 164 169 123 133 107 241 180 167 187 192 184
4 2 360 0 0 1 359 1 2 2 8 8 8 358 23 30 11 345 34 86 121 110 67 25 82 27 7 347 333 352 26 49 13 283 323 188 144 259 328 293 103 66 326 223 175 135 177 117 171 147 153 198 115 134 163 227 220 172 94 184 252 263 130 140 180 242 137 238 177 158 198 189 207 216 332 317 67 164 151 144 236 187 148 172 299 204 178
6 2 0 358 359 1 3 1 5 6 4 9 2 16 44 34 4 351 109 118 137 128 126 80 31 27 268 273 305 340 348 336 282 274 49 37 145 158 177 185 161 161 176 167 170 87 71 115 99 159 161 224 150 201 275 132 245 186 172 214 106 247 190 155 196 157 182 237 152 177 248 237 210 170 165 188 204 205 181 176 184 151 126 123 86 91 113
7 4 2 359 358 359 3 4 0 10 9 7 17 27 31 26 340 1 225 62 85 91 121 102 354 345 308 18 10 306 298 313 313 212 120 196 159 217 131 114 59 37 94 118 141 134 131 90 106 150 138 222 143 156 183 210 147 178 192 196 195 156 142 208 170 173 286 359 327 5 57 39 236 221 251 243 196 183 164 141 136 141 116 91 52 45 64
8 6 4 4 360 358 359 3 1 356 25 27 26 15 26 23 24 34 40 303 120 59 33 105 134 286 29 59 359 319 315 337 341 91 74 55 82 124 125 135 122 107 113 70 26 110 82 106 142 185 161 182 133 147 146 96 136 145 217 240 143 113 184 146 90 197 213 206 194 158 133 224 228 225 216 219 194 155 137 121 128 142 133 128 102 56 39
7 4 4 3 2 358 356 359 2 355 356 85 60 38 338 34 26 27 17 33 319 132 145 125 131 177 212 71 8 355 355 14 34 79 77 48 55 111 127 136 132 133 141 126 123 90 106 150 175 94 91 161 103 56 176 117 76 37 239 209 192 166 180 154 184 190 218 197 154 189 177 175 193 199 211 161 147 146 155 174 163 162 153 151 129 117 65
4 4 2 2 0 359 355 357 1 360 355 91 65 357 245 59 35 15 12 3 354 91 92 94 76 50 91 175 347 359 356 19 51 80 78 57 54 65 92 104 109 128 95 85 90 83 106 86 100 140 171 200 95 162 97 157 180 211 223 178 186 236 182 181 195 192 316 157 173 178 165 185 228 300 132 141 156 142 138 134 130 146 154 150 119 127 134
1 1 1 359 359 359 357 357 3 5 6 38 29 34 31 335 20 19 354 355 354 307 111 129 108 122 8 21 357 350 348 357 52 66 62 55 44 42 42 70 69 43 105 141 149 121 173 121 206 307 291 3 116 157 140 162 153 236 263 211 193 70 58 61 27 177 203 213 161 163 110 85 54 72 80 107 127 136 132 136 137 121 97 111 116 103 84
356 356 355 355 356 358 359 1 8 10 11 16 52 43 27 22 333 1 344 340 335 43 87 64 100 142 75 47 52 353 341 344 41 65 57 49 59 28 335 77 57 57 84 32 46 125 120 103 120 82 345 5 118 139 164 140 205 300 239 182 196 158 161 156 3 80 126 111 100 97 94 92 132 88 58 72 87 108 100 88 80 95 108 95 84 96 95
352 351 350 351 353 356 359 0 15 19 29 43 48 60 13 298 281 324 331 322 322 48 69 109 76 44 110 28 331 308 320 302 23 55 51 18 32 2 23 48 71 7 88 100 136 74 60 145 92 144 122 110 84 94 93 106 153 232 182 153 175 126 123 137 123 93 98 138 118 78 54 91 221 137 170 134 95 89 107 105 101 100 95 94 87 76 73
348 348 347 347 348 354 356 360 7 45 52 98 113 129 160 310 339 347 334 320 40 48 19 71 100 137 77 216 30 358 345 336 31 37 49 13 38 356 28 1 16 44 2 74 14 106 236 97 158 75 301 45 99 120 109 166 207 289 76 147 138 150 126 119 119 129 130 12 0 148 186 189 160 100 105 107 104 114 116 116 124 120 109 100 91 87 75
345 345 343 342 343 349 355 358 8 39 43 30 7 346 342 336 343 349 352 59 96 100 59 94 100 83 119 312 69 329 33 56 48 8 77 7 331 40 21 14 347 60 347 83 164 70 330 68 83 153 29 22 63 86 132 264 313 307 6 37 60 105 133 114 109 99 7 8 33 65 100 105 109 111 96 100 98 89 102 115 121 100 91 90 85 84 102
342 342 340 337 339 345 9 6 13 32 16 348 327 271 327 328 332 349 351 6 67 13 59 39 76 112 89 23 58 326 345 36 48 346 96 42 8 81 33 63 337 74 308 58 42 85 87 229 197 85 178 305 55 91 225 331 340 357 0 41 27 126 112 105 59 19 61 93 94 96 112 121 114 107 113 113 116 124 114 101 111 112 98 89 96 84 82
340 339 334 333 336 3 6 14 27 5 20 355 288 303 313 312 324 336 346 15 71 122 81 91 58 60 102 126 137 268 10 55 34 36 28 127 42 31 70 111 64 320 267 50 137 28 96 309 65 109 304 92 153 86 335 347 305 344 323 286 233 112 266 204 136 103 88 89 96 104 101 96 107 117 114 113 114 114 113 105 84 94 110 112 108 102 79
337 334 332 348 10 38 21 340 331 82 250 280 291 300 301 313 54 43 12 28 17 42 87 104 64 34 40 114 69 309 54 85 13 46 14 51 117 330 46 61 106 139 47 24 33 91 257 9 91 77 28 129 140 31 9 1 356 5 343 343 336 348 111 113 133 116 96 81 82 85 99 105 96 103 108 109 117 126 113 109 125 124 124 126 122 99 101
332 352 36 12 30 36 344 331 303 306 318 312 323 336 8 23 35 351 8 20 338 37 12 49 62 341 320 47 64 310 56 94 13 106 44 265 57 334 286 94 176 109 79 136 272 175 56 42 59 97 83 108 108 54 22 10 358 346 348 5 4 7 51 104 152 120 106 95 84 107 97 92 101 102 114 105 92 84 73 83 68 68 87 93 97 105 97
15 17 41 24 84 19 222 271 328 328 309 268 27 73 2 7 36 25 348 329 12 19 338 58 21 337 350 57 54 1 63 136 82 5 104 295 90 349 24 95 282 84 309 57 301 202 71 37 37 86 128 136 66 23 15 8 12 3 4 4 1 353 1 38 15 25 130 141 142 144 143 147 142 131 109 102 88 72 73 72 70 63 76 80 78 79 74
19 29 14 9 35 262 270 294 340 333 351 50 339 86 61 346 56 13 325 39 13 349 9 41 347 28 0 59 65 44 337 45 85 98 145 64 322 131 226 86 262 94 142 126 240 12 123 129 271 97 177 111 96 39 11 19 10 8 356 358 7 17 28 47 61 60 81 75 70 74 68 78 98 118 125 119 115 102 81 64 63 65 67 71 66 65 55
14 7 20 359 263 280 287 306 336 49 51 26 19 16 46 22 20 205 33 44 45 308 12 324 1 19 19 23 13 81 333 47 26 60 89 75 255 73 41 97 252 92 38 110 283 68 73 82 31 112 138 64 44 6 352 10 16 6 9 10 16 25 44 61 54 39 70 77 64 56 55 70 78 80 85 95 99 100 94 90 76 66 63 59 53 49 30
293 302 239 240 254 282 338 10 48 23 21 95 104 13 325 239 354 26 59 75 353 327 339 23 6 29 350 3 341 21 7 140 99 47 88 48 341 98 154 359 352 108 136 242 87 50 72 102 133 159 141 86 39 15 359 13 15 8 13 18 31 37 46 66 72 54 61 79 80 68 62 70 72 69 77 93 95 96 98 93 86 71 71 72 71 53 33
313 300 44 33 14 350 63 36 340 77 60 1 27 30 353 50 11 78 338 2 325 75 274 12 242 140 20 11 357 54 88 330 42 351 65 79 11 52 79 30 39 66 216 24 53 66 64 118 148 141 76 81 66 11 15 1 7 31 22 29 37 37 48 61 68 67 54 65 72 69 70 68 60 54 58 83 96 83 69 74 80 86 79 74 68 57 40
294 15 26 346 40 304 59 17 320 53 32 36 64 66 355 29 333 11 44 329 320 351 319 36 339 77 33 345 58 360 8 13 77 91 62 343 68 19 56 50 76 263 26 34 28 73 124 68 35 73 108 88 54 39 1 340 344 47 51 39 32 42 53 71 70 73 64 58 57 59 63 67 74 57 48 40 50 88 94 75 68 76 79 79 67 55 35
53 2 23 18 30 303 50 3 2 84 56 327 50 112 117 70 332 101 68 321 69 274 327 19 19 64 48 299 46 1 44 108 311 90 272 42 64 27 75 96 266 24 68 81 50 356 18 1 88 89 137 116 99 67 353 337 328 33 77 58 41 33 26 58 55 68 68 56 52 50 57 54 67 63 54 55 53 47 66 71 48 53 58 67 68 58 34
54 91 39 61 29 354 76 78 6 41 0 58 6 212 148 262 165 18 297 63 338 340 35 357 356 72 58 328 99 339 4 30 50 15 81 49 91 33 256 297 65 75 38 40 69 119 168 120 135 161 112 121 115 88 44 335 345 316 76 70 41 43 37 51 60 64 62 70 59 63 65 54 61 70 66 55 53 52 54 52 46 42 48 68 53 51 30
31 4 79 104 80 323 70 75 7 313 344 311 239 197 229 283 227 241 256 322 312 296 286 261 56 72 101 330 20 8 33 21 80 302 66 43 110 230 17 81 48 6 113 117 237 238 236 212 138 94 119 125 110 88 66 48 42 69 77 78 70 50 43 51 46 54 45 57 64 66 62 59 57 69 92 85 60 54 51 50 42 33 50 66 64 63 54
54 275 84 71 74 43 47 332 182 352 265 208 269 260 264 255 28 359 333 350 260 298 353 357 8 348 25 308 75 141 335 333 78 344 105 176 51 41 24 41 32 258 194 144 207 208 109 105 135 138 101 98 119 116 81 68 49 58 66 68 63 61 55 63 65 54 43 49 55 65 66 60 58 53 50 74 79 55 45 48 55 45 54 62 62 60 61
76 65 57 133 140 107 140 324 76 58 337 339 311 17 17 37 39 338 325 334 354 345 312 81 148 96 18 297 65 13 16 321 82 260 32 25 87 171 116 169 109 57 251 166 124 116 110 96 62 94 98 95 69 87 82 63 56 66 63 56 51 49 54 60 63 58 52 48 48 58 55 38 54 64 73 84 88 75 42 52 69 54 48 44 41 43 49
44 28 25 20 15 3 302 165 84 35 346 7 21 7 340 30 12 344 350 351 327 326 313 240 23 91 239 84 14 33 29 337 124 18 60 18 127 197 72 51 240 146 99 215 223 130 76 77 100 84 75 82 81 69 82 65 52 53 52 43 37 42 41 51 59 60 54 49 52 63 85 101 118 124 109 88 75 96 101 75 56 54 40 44 45 37 24
12 86 106 336 58 318 342 51 22 3 13 354 350 334 6 342 323 297 358 345 320 4 38 64 287 79 39 24 43 47 272 205 52 37 127 103 189 83 116 129 216 186 128 14 32 36 50 53 86 111 84 74 91 86 59 67 67 50 49 55 62 50 48 59 68 81 85 73 63 79 75 95 198 84 97 121 140 128 124 108 84 64 28 15 35 36 1
37 41 3 3 54 65 339 283 53 89 112 274 298 284 11 340 329 300 326 323 345 69 29 269 67 34 55 59 198 196 356 42 322 56 36 300 148 103 215 176 114 100 107 127 107 32 33 17 27 53 80 89 97 94 82 64 76 77 68 48 86 125 93 62 67 68 116 93 64 50 41 20 10 351 318 56 76 66 46 3 8 18 5 354 337 343 325